Weather History for KRAL - September, 2011

Change the Weather History Date:

Monday, September 19, 2011

  Actual Average Record
Temperature  
Mean Temperature 79 °F 76 °F  
Max Temperature 96 °F 90 °F 106 °F (1939)
Min Temperature 61 °F 62 °F 42 °F (1925)
Degree Days  
Heating Degree Days 0 0  
Month to date heating degree days 0 0  
Since 1 July heating degree days 0 0  
Cooling Degree Days 14 11  
Month to date cooling degree days 239 234  
Year to date cooling degree days 1431 1492  
Growing Degree Days 29 (Base 50)    
Moisture  
Dew Point 56 °F    
Average Humidity 57    
Maximum Humidity 90    
Minimum Humidity 24    
Precipitation  
Precipitation 0.00 in 0.01 in 0.65 in (1963)
Month to date precipitation 0.04 0.13  
Year to date precipitation 4.58 9.47  
Since 1 July precipitation 0.38 0.28  
Snow  
Snow 0.00 in - - ()
Month to date snowfall 0.0  
Year to date snowfall 0.0  
Since 1 July snowfall 0.0  
Snow Depth 0.00 in    
Sea Level Pressure  
Sea Level Pressure 29.90 in    
Wind  
Wind Speed 4 mph (WNW)    
Max Wind Speed 16 mph    
Max Gust Speed 23 mph    
Visibility 8 miles    
Events      
T = Trace of Precipitation, MM = Missing Value Source: NWS Daily Summary

Daily Weather History Graph

Daily Weather History Graph

Search for Another Location

Airport or City:

Trip Planner

Search our weather history database for the weather conditions in past years. The results will help you decide how hot, cold, wet, or windy it might be!

Date:

Astronomy

Sep. 19, 2011 Rise Set
Actual Time 6:35 AM PDT 6:50 PM PDT
Civil Twilight 6:10 AM PDT 7:15 PM PDT
Nautical Twilight 5:41 AM PDT 7:45 PM PDT
Astronomical Twilight 5:11 AM PDT 8:14 PM PDT
Moon 11:21 PM PDT (9/19) 1:10 PM PDT (9/19)
Length of Visible Light 13h 05m
Length of Day
12h 15m
Waning Gibbous, 58% of the Moon is Illuminated
Sep 19
Waning Gibbous
Sep 20
Last Quarter
Sep 27
New
Oct 3
First Quarter
Oct 11
Full

Hourly Weather History & Observations

Time (PDT) Temp. Heat Index Dew Point Humidity Pressure Visibility Wind Dir Wind Speed Gust Speed Precip Events Conditions
12:53 AM 66.9 °F - 57.9 °F 73% 29.98 in 7.0 mi Calm Calm - N/A   Clear
1:53 AM 64.9 °F - 57.9 °F 78% 29.97 in 6.0 mi Calm Calm - N/A   Haze
2:53 AM 64.9 °F - 57.9 °F 78% 29.95 in 8.0 mi Calm Calm - N/A   Clear
3:53 AM 63.0 °F - 57.0 °F 81% 29.94 in 7.0 mi Calm Calm - N/A   Clear
4:53 AM 63.0 °F - 57.9 °F 84% 29.94 in 5.0 mi NE 3.5 mph - N/A   Haze
6:53 AM 63.0 °F - 57.0 °F 81% 29.94 in 6.0 mi ENE 3.5 mph - N/A   Haze
7:53 AM 68.0 °F - 57.0 °F 68% 29.94 in 8.0 mi ENE 3.5 mph - N/A   Clear
8:53 AM 75.0 °F - 55.9 °F 51% 29.94 in 10.0 mi Calm Calm - N/A   Clear
9:53 AM 82.0 °F 81.2 °F 53.1 °F 37% 29.93 in 10.0 mi Calm Calm - N/A   Clear
10:53 AM 86.0 °F 84.2 °F 54.0 °F 33% 29.92 in 10.0 mi West 5.8 mph - N/A   Clear
11:53 AM 91.0 °F - 52.0 °F 26% 29.90 in 10.0 mi West 5.8 mph - N/A   Clear
12:53 PM 93.9 °F - 52.0 °F 24% 29.88 in 10.0 mi West 8.1 mph - N/A   Clear
1:53 PM 95.0 °F 93.7 °F 57.0 °F 28% 29.86 in 10.0 mi WNW 10.4 mph 20.7 mph N/A   Clear
2:53 PM 93.0 °F 90.8 °F 54.0 °F 27% 29.85 in 10.0 mi West 11.5 mph 20.7 mph N/A   Clear
3:53 PM 91.9 °F 90.3 °F 55.9 °F 30% 29.83 in 9.0 mi West 10.4 mph - N/A   Clear
4:53 PM 90.0 °F 88.1 °F 55.9 °F 31% 29.83 in 10.0 mi West 10.4 mph - N/A   Clear
5:53 PM 84.0 °F 83.0 °F 55.9 °F 38% 29.84 in 10.0 mi West 15.0 mph 21.9 mph N/A   Clear
6:53 PM 79.0 °F - 57.9 °F 48% 29.86 in 10.0 mi West 6.9 mph - N/A   Clear
7:53 PM 75.9 °F - 59.0 °F 56% 29.88 in 10.0 mi Calm Calm - N/A   Clear
8:53 PM 73.0 °F - 57.9 °F 59% 29.90 in 9.0 mi West 3.5 mph - N/A   Clear
9:53 PM 71.1 °F - 57.9 °F 63% 29.91 in 7.0 mi Calm Calm - N/A   Clear
10:53 PM 70.0 °F - 57.9 °F 65% 29.91 in 6.0 mi Calm Calm - N/A   Haze
11:53 PM 68.0 °F - 57.9 °F 70% 29.91 in 7.0 mi Calm Calm - N/A   Clear